This demonstration page uses our WeatherBlox Daily Observations layout. Learn more.

Hourly Observations for April 14, 2017

Temp ( °F °C ) Dew Point ( °F °C ) Humidity (%) Winds ( mph kmh ) Pressure ( in mb ) Visibility ( mi km ) Precip ( " mm )
12:15 am 00:15 Cloudy 57 14 51 10.3 79 79 SSE 8 13 29.97 1015 10 16.0934 0 0
12:35 am 00:35 Cloudy 57 14 50 10.1 78 78 SSE 10 17 29.97 1015 10 16.0934 0 0
12:55 am 00:55 Cloudy 57 13.7 50 10.2 80 80 SE 10 17 29.97 1015 10 16.0934 0 0
1:15 am 01:15 Mostly Cloudy 56 13.1 50 10.1 82 82 SSE 7 11 29.97 1015 10 16.0934 0 0
1:35 am 01:35 Mostly Cloudy 55 12.9 51 10.5 85 85 SSE 8 13 29.94 1014 10 16.0934 0 0
1:55 am 01:55 Cloudy 55 13 51 10.7 86 86 SSE 9 15 29.94 1014 10 16.0934 0 0
2:15 am 02:15 Cloudy 57 13.7 53 11.4 86 86 S 14 22 29.94 1014 10 16.0934 0 0
2:35 am 02:35 Cloudy 57 14 53 11.9 87 87 S 16 26 29.91 1013 10 16.0934 0 0
2:55 am 02:55 Cloudy 57 14 54 12.2 89 89 SSE 12 19 29.91 1013 10 16.0934 0 0
3:15 am 03:15 Cloudy 57 14 54 12.3 90 90 SSE 14 22 29.91 1013 10 16.0934 0 0
3:35 am 03:35 Cloudy 57 14.1 55 12.5 90 90 SSE 17 28 29.88 1012 10 16.0934 0 0
3:55 am 03:55 Cloudy 57 14.1 55 12.6 91 91 SSE 13 20 29.88 1012 10 16.0934 0 0
4:15 am 04:15 Cloudy with Nearby Thunderstorms 57 14.1 55 12.6 91 91 SSE 13 20 29.88 1012 10 16.0934 0 0
4:35 am 04:35 Cloudy with Nearby Thunderstorms 57 14 55 12.5 91 91 SSE 15 24 29.88 1012 10 16.0934 0 0
4:55 am 04:55 Cloudy with Light Rain 57 13.8 54 12.3 91 91 SSE 12 19 29.88 1012 10 16.0934 0 0
5:15 am 05:15 Cloudy with Heavy Thunderstorms 56 13.5 55 12.5 94 94 SSE 17 28 29.85 1011 4 6.43736 0.09 2.286
5:35 am 05:35 Cloudy with Heavy Thunderstorms 55 12.9 53 11.9 94 94 SW 14 22 29.85 1011 2 3.21868 0.36 9.144
5:55 am 05:55 Cloudy with Rain 55 12.6 52 11 90 90 ENE 3 6 29.85 1011 10 16.0934 0.42 10.668
6:15 am 06:15 Cloudy with Thunderstorms 55 13 51 10.6 85 85 SSE 6 9 29.85 1011 10 16.0934 0 0
6:35 am 06:35 Cloudy with Nearby Thunderstorms 55 13 53 11.5 91 91 SE 8 13 29.85 1011 7 11.26538 0 0
6:55 am 06:55 Cloudy with Nearby Thunderstorms 56 13.2 54 12.3 94 94 SE 13 20 29.85 1011 2.5 4.02335 0 0
7:15 am 07:15 Cloudy with Light Drizzle 56 13.5 55 12.7 95 95 SE 16 26 29.85 1011 2.5 4.02335 0.01 0.254
7:35 am 07:35 Cloudy with Light Rain 56 13.3 55 12.6 96 96 SE 17 28 29.85 1011 2.5 4.02335 0.01 0.254
7:55 am 07:55 Cloudy with Light Rain 56 13.2 55 12.5 96 96 SE 16 26 29.83 1010 2.5 4.02335 0.01 0.254
8:15 am 08:15 Cloudy with Light Rain 56 13.2 55 12.5 96 96 SE 17 28 29.83 1010 2.5 4.02335 0.01 0.254
8:35 am 08:35 Cloudy with Mist and Fog 56 13.2 55 12.6 96 96 SE 16 26 29.83 1010 1.5 2.41401 0.01 0.254
8:55 am 08:55 Cloudy with Mist and Fog 56 13.5 55 12.8 96 96 SE 18 30 29.83 1010 1.5 2.41401 0.01 0.254
9:15 am 09:15 Cloudy with Mist and Fog 56 13.5 55 13 97 97 SE 17 28 29.8 1009 2 3.21868 0 0
9:35 am 09:35 Cloudy with Mist and Fog 57 13.7 56 13.1 96 96 SE 17 28 29.8 1009 3 4.82802 0 0
9:55 am 09:55 Cloudy with Mist and Fog 57 14 56 13.4 96 96 SE 17 28 29.8 1009 2.5 4.02335 0 0
10:15 am 10:15 Cloudy with Mist and Fog 57 14.1 56 13.5 96 96 SSE 15 24 29.8 1009 2 3.21868 0 0
10:35 am 10:35 Cloudy with Mist and Fog 58 14.3 57 13.7 96 96 SSE 15 24 29.77 1008 1.75 2.816345 0 0
10:55 am 10:55 Cloudy with Mist and Fog 58 14.5 57 13.8 96 96 SSE 13 20 29.74 1007 1.5 2.41401 0 0
11:15 am 11:15 Cloudy with Mist and Fog 59 15.1 58 14.5 96 96 SSE 14 22 29.74 1007 3 4.82802 0 0
11:35 am 11:35 Cloudy 61 16.3 60 15.6 96 96 SSE 16 26 29.74 1007 7 11.26538 0 0
11:55 am 11:55 Cloudy 63 17 60 15.5 91 91 S 17 28 29.74 1007 10 16.0934 0 0
12:15 pm 12:15 Cloudy 64 17.7 60 15.6 88 88 SSE 16 26 29.71 1006 10 16.0934 0 0
12:35 pm 12:35 Cloudy 65 18.2 60 15.7 85 85 S 16 26 29.71 1006 10 16.0934 0 0
12:55 pm 12:55 Cloudy 65 18.6 61 15.9 84 84 S 10 17 29.71 1006 10 16.0934 0 0
1:15 pm 13:15 Cloudy 67 19.5 61 16.1 81 81 S 13 20 29.71 1006 10 16.0934 0 0
1:35 pm 13:35 Cloudy 69 20.6 61 16.2 76 76 S 15 24 29.68 1005 10 16.0934 0 0
1:55 pm 13:55 Cloudy 72 22.3 61 16.2 69 69 S 15 24 29.65 1004 10 16.0934 0 0
2:15 pm 14:15 Mostly Cloudy 75 23.7 59 15.2 59 59 S 16 26 29.62 1003 10 16.0934 0 0
2:35 pm 14:35 Mostly Cloudy 76 24.7 59 15 55 55 S 22 35 29.59 1002 10 16.0934 0 0
2:55 pm 14:55 Mostly Cloudy 77 25.1 57 13.8 50 50 S 25 41 29.59 1002 10 16.0934 0 0
3:15 pm 15:15 Partly Cloudy 79 26.2 56 13.5 46 46 S 18 30 29.56 1001 10 16.0934 0 0
3:35 pm 15:35 Partly Cloudy 80 26.6 56 13.5 44 44 S 23 37 29.56 1001 10 16.0934 0 0
3:55 pm 15:55 Partly Cloudy 80 26.6 57 13.9 46 46 S 18 30 29.56 1001 10 16.0934 0 0
4:15 pm 16:15 Sunny 80 26.8 58 14.5 47 47 S 17 28 29.56 1001 10 16.0934 0 0
4:35 pm 16:35 Partly Cloudy 80 26.9 58 14.3 46 46 S 18 30 29.56 1001 10 16.0934 0 0
4:55 pm 16:55 Partly Cloudy 80 26.6 58 14.2 47 47 SSE 20 31 29.56 1001 10 16.0934 0 0
5:15 pm 17:15 Sunny 80 26.9 58 14.4 46 46 S 20 31 29.56 1001 10 16.0934 0 0
5:35 pm 17:35 Sunny 81 27 57 13.8 44 44 S 21 33 29.56 1001 10 16.0934 0 0
5:55 pm 17:55 Partly Cloudy 79 25.9 57 14.1 48 48 SSE 14 22 29.53 1000 10 16.0934 0 0
6:15 pm 18:15 Partly Cloudy 80 26.4 56 13.6 45 45 SSE 18 30 29.53 1000 10 16.0934 0 0
6:35 pm 18:35 Partly Cloudy 80 26.5 57 13.9 46 46 SSE 17 28 29.53 1000 10 16.0934 0 0
6:55 pm 18:55 Partly Cloudy 79 26.3 56 13.2 44 44 SSE 18 30 29.53 1000 10 16.0934 0 0
7:15 pm 19:15 Sunny 77 25.1 58 14.7 53 53 SSE 20 31 29.53 1000 10 16.0934 0 0
7:35 pm 19:35 Sunny 75 24.1 58 14.6 55 55 SSE 18 30 29.53 1000 10 16.0934 0 0
7:55 pm 19:55 Sunny 76 24.2 58 14.5 55 55 S 23 37 29.5 999 10 16.0934 0 0
8:15 pm 20:15 Sunny 75 23.7 58 14.3 56 56 S 23 37 29.5 999 10 16.0934 0 0
8:35 pm 20:35 Clear 74 23.1 57 14 57 57 S 25 41 29.5 999 10 16.0934 0 0
8:55 pm 20:55 Clear 73 22.8 57 14 58 58 S 26 43 29.47 998 10 16.0934 0 0
9:15 pm 21:15 Clear 73 22.5 57 13.8 58 58 S 24 39 29.53 1000 10 16.0934 0 0
9:35 pm 21:35 Clear 73 22.5 57 13.8 58 58 SSE 21 33 29.56 1001 10 16.0934 0 0
9:55 pm 21:55 Clear 73 22.5 56 13.6 57 57 SSE 22 35 29.59 1002 10 16.0934 0 0
10:15 pm 22:15 Clear 71 21.9 56 13.6 59 59 S 26 43 29.59 1002 10 16.0934 0 0
10:35 pm 22:35 Clear 71 21.5 57 13.7 61 61 S 21 33 29.59 1002 10 16.0934 0 0
10:55 pm 22:55 Clear 70 21 56 13.6 63 63 S 24 39 29.59 1002 10 16.0934 0 0
11:15 pm 23:15 Clear 69 20.8 56 13.6 64 64 S 28 44 29.59 1002 10 16.0934 0 0
11:35 pm 23:35 Clear 69 20.5 56 13.6 65 65 S 26 43 29.59 1002 10 16.0934 0 0
11:55 pm 23:55 Clear 68 20.2 56 13.6 66 66 S 24 39 29.59 1002 10 16.0934 0 0

Powered by AerisWeather